STARLINK-37190, 68396

Orbit data source: Space-Track

STARLINK-37190, 68396 is a payload satellite owned by SpaceX/Seattle (US) in SSO that was launched on Thu, 26 Mar 2026 UTC via an FALCON 9 launch vehicle from the Air Force Western Test Range (AFWTR). Payload-class satellites include a variety of spacecraft equipped with specific instruments for various scientific and technological missions. These include communications satellites like Starlink; space stations such as the ISS; scientific satellites like the Hubble; Earth observation satellites from companies like Planet Labs, Umbra, and HawkEye 360; GPS; miniature CubeSats for education and research; and military/defense satellites.

Not visible in the next 10 days
Identifier
68396, 2026-063S
Orbit
SSO
Country
Flag of USUS
Related business
Manufacturer
SpaceX/Seattle
Mission
Operational spacecraft
Bus & Motor
STARLINK V2MO, Unknown motor
Mass
575 kg wet, ~530 kg dry
Launch date (UTC)
2026-03-26 (1 month ago)
Launch vehicle
FALCON 9
Launch site
Air Force Western Test Range (AFWTR)
Object type
Payload
Rocket body
Debris
Shape & HBR
Unknown shape, 17.7 m
Radar Cross Section
RCS unknown

Expand to show TLE details & history
Last TLE update: 5 hours ago

TLE from 5 hours ago
0 STARLINK-37190
1 68396U 26063S   26119.16668980  .00086130  00000-0  57423-3 0  9994
2 68396  97.2841 261.5399 0001335  80.6034 296.8066 15.75120621  5937
Epoch: 2026-04-29T04:00Z
TLE epoch observation values (Epoch: 2026-04-29T04:00:01.998Z)
Latitude
17.23846°
Longitude
-17.8602°
Altitude
346.428 km
Speed
7.703 km/s
True Right ascension
17h 17m 07s
True Declination
17° 08' 08"
Sunlit
Object was in full shadow at epoch
Visualization orbit readout
Latitude
Unknown
Longitude
Unknown
Altitude
Unknown
Speed
Unknown
Apparent Right ascension
Unknown
Apparent Declination
Unknown
Sunlit
N/A
Visualization observer readout
Local Sidereal Time
16:41:19
Azimuth
Unknown
Elevation
Unknown
Doppler factor
Unknown
Orbital elements
Apogee altitude
342.072 km
Perigee altitude
340.278 km
Semi-major axis
6,719.312 km
Eccentricity
0.00013
Inclination
97.2841°
RAAN
261.5399°
Arg. of periapsis
80.6034°
True anomaly
296.79295°
Mean anomaly
296.8066°
Eccentric anomaly
296.79977°
Mean motion
3.94054 °/min
Orbital period
91.36 mins
BSTAR
0.00057423
Loading maneuver chart data...
Computing Atmospheric mass density...
Loading historical data...
Loading historical data...
Loading historical data...
Loading historical data...
Loading historical data...
Loading historical data...
Loading historical data...

Documentation

Showing up to 5 results
|